CW6666 Weather Reports


Display with metric or nautical units.
time (UTC)temp
F
wind
direction
speed
MPH
gust
MPH
rain 1hr
in
rain 24hr
in
rain mn
in
humidity
%
barometer
mb
20171123165114 83 70 16.0 18.0 0.00 0.00 0.00 78 1006.7
20171123164614 83 67 15.0 18.0 0.00 0.00 0.00 78 1006.7
20171123164114 83 53 15.0 18.0 0.00 0.00 0.00 79 1006.8
20171123163614 84 57 17.0 18.0 0.00 0.00 0.00 79 1006.8
20171123163114 84 55 16.0 19.0 0.00 0.00 0.00 77 1006.8
20171123162614 84 59 15.0 20.0 0.00 0.00 0.00 77 1007.0
20171123162115 83 61 17.0 20.0 0.00 0.00 0.00 78 1007.0
20171123161614 83 67 14.0 21.0 0.00 0.00 0.00 79 1007.0
20171123161114 83 66 12.0 21.0 0.00 0.00 0.00 79 1007.1
20171123160614 82 45 14.0 14.0 0.00 0.00 0.00 84 1007.1
20171123160114 82 64 11.0 18.0 0.00 0.00 0.00 84 1007.1
20171123155614 82 56 10.0 21.0 0.00 0.00 0.00 84 1007.2
20171123155114 83 53 17.0 21.0 0.00 0.00 0.00 84 1007.2
20171123154614 83 46 15.0 16.0 0.00 0.00 0.00 82 1007.2
20171123154115 83 51 11.0 16.0 0.00 0.00 0.00 81 1007.4
20171123153614 83 60 13.0 17.0 0.00 0.00 0.00 81 1007.4
20171123153114 83 61 15.0 17.0 0.00 0.00 0.00 80 1007.4
20171123152615 83 67 12.0 17.0 0.00 0.00 0.00 80 1007.5
20171123152114 83 71 13.0 18.0 0.00 0.00 0.00 80 1007.5
20171123151614 83 59 17.0 18.0 0.00 0.00 0.00 81 1007.5
20171123151114 83 48 14.0 18.0 0.00 0.00 0.00 81 1007.7
20171123150615 83 46 13.0 19.0 0.00 0.00 0.00 80 1007.7
20171123150114 83 68 15.0 20.0 0.00 0.00 0.00 81 1007.7
20171123145614 83 63 16.0 20.0 0.00 0.00 0.00 81 1007.7
20171123145114 83 70 13.0 20.0 0.00 0.00 0.00 81 1007.7
20171123144614 84 48 18.0 20.0 0.00 0.00 0.00 81 1007.7
20171123144114 83 53 16.0 18.0 0.00 0.00 0.00 79 1007.8
20171123143616 83 44 15.0 18.0 0.00 0.00 0.00 79 1007.8
20171123143115 83 52 15.0 18.0 0.00 0.00 0.00 79 1007.8
20171123142615 84 61 13.0 19.0 0.00 0.00 0.00 80 1007.8
20171123142114 84 61 15.0 19.0 0.00 0.00 0.00 79 1007.8
20171123141615 83 67 16.0 18.0 0.00 0.00 0.00 79 1007.8
20171123141115 83 57 14.0 18.0 0.00 0.00 0.00 79 1008.1
20171123140615 84 57 15.0 18.0 0.00 0.00 0.00 80 1008.1
20171123140144 83 55 16.0 18.0 0.00 0.00 0.00 79 1008.1
20171123135644 84 57 14.0 18.0 0.00 0.00 0.00 80 1008.2
20171123135145 84 57 17.0 18.0 0.00 0.00 0.00 79 1008.2
20171123134644 84 63 17.0 19.0 0.00 0.00 0.00 79 1008.2
20171123134144 84 67 13.0 20.0 0.00 0.00 0.00 78 1008.2
20171123133614 84 57 18.0 20.0 0.00 0.00 0.00 78 1008.2
20171123133146 84 54 15.0 19.0 0.00 0.00 0.00 78 1008.2
20171123132644 84 56 17.0 19.0 0.00 0.00 0.00 79 1008.2
20171123132114 84 56 15.0 19.0 0.00 0.00 0.00 81 1008.2
20171123131644 84 55 14.0 19.0 0.00 0.00 0.00 81 1008.2
20171123131114 84 64 14.0 19.0 0.00 0.00 0.00 80 1008.1
20171123130644 84 49 17.0 18.0 0.00 0.00 0.00 79 1008.1
20171123130114 84 59 13.0 19.0 0.00 0.00 0.00 80 1008.1
20171123125644 84 61 16.0 19.0 0.00 0.00 0.00 78 1008.2
20171123125145 84 47 19.0 19.0 0.00 0.00 0.00 80 1008.2
20171123124645 84 55 17.0 18.0 0.00 0.00 0.00 79 1008.2
20171123124145 84 68 11.0 18.0 0.00 0.00 0.00 81 1008.2
20171123123644 84 59 14.0 17.0 0.00 0.00 0.00 81 1008.2
20171123123114 84 55 15.0 17.0 0.00 0.00 0.00 80 1008.2
20171123122644 84 57 15.0 19.0 0.00 0.00 0.00 79 1008.3
20171123122114 84 52 14.0 19.0 0.00 0.00 0.00 79 1008.3
20171123121614 84 55 16.0 19.0 0.00 0.00 0.00 80 1008.3
20171123121115 84 60 15.0 20.0 0.00 0.00 0.00 80 1008.3
20171123120644 84 58 16.0 20.0 0.00 0.00 0.00 80 1008.3
20171123120114 84 60 15.0 20.0 0.00 0.00 0.00 80 1008.3
20171123115615 84 56 14.0 19.0 0.00 0.00 0.00 79 1008.2
20171123115144 84 60 17.0 20.0 0.00 0.00 0.00 78 1008.2
20171123114614 84 67 17.0 20.0 0.00 0.00 0.00 80 1008.2
20171123114115 84 62 19.0 20.0 0.00 0.00 0.00 79 1008.3
20171123113644 84 59 18.0 20.0 0.00 0.00 0.00 80 1008.3
20171123113144 84 58 17.0 19.0 0.00 0.00 0.00 80 1008.3
20171123112644 84 51 15.0 20.0 0.00 0.00 0.00 80 1008.2
20171123112114 84 64 17.0 20.0 0.00 0.00 0.00 79 1008.2
20171123111644 84 61 18.0 19.0 0.00 0.00 0.00 79 1008.2
20171123111115 84 55 16.0 20.0 0.00 0.00 0.00 79 1008.2
20171123110615 84 56 17.0 20.0 0.00 0.00 0.00 78 1008.2
20171123110114 84 51 15.0 20.0 0.00 0.00 0.00 80 1008.2
20171123105614 84 53 17.0 20.0 0.00 0.00 0.00 80 1008.1
20171123105114 84 57 18.0 19.0 0.00 0.00 0.00 79 1008.1
20171123104645 84 47 17.0 19.0 0.00 0.00 0.00 78 1008.1
20171123104144 84 41 15.0 19.0 0.00 0.00 0.00 79 1007.9
20171123103644 84 44 15.0 19.0 0.00 0.00 0.00 80 1007.9
20171123103145 84 51 16.0 19.0 0.00 0.00 0.00 80 1007.9
20171123102644 84 53 14.0 18.0 0.00 0.00 0.00 79 1007.7
20171123102114 84 49 14.0 18.0 0.00 0.00 0.00 80 1007.7
20171123101644 84 68 16.0 18.0 0.00 0.00 0.00 79 1007.7
20171123101115 84 56 13.0 19.0 0.00 0.00 0.00 79 1007.5
20171123100615 84 59 16.0 19.0 0.00 0.00 0.00 80 1007.5
20171123100115 84 60 18.0 19.0 0.00 0.00 0.00 79 1007.5
20171123095614 84 67 14.0 19.0 0.00 0.00 0.00 78 1007.2
20171123095114 84 62 15.0 19.0 0.00 0.00 0.00 80 1007.2
20171123094614 84 63 18.0 18.0 0.00 0.00 0.00 80 1007.2
20171123094115 84 65 14.0 17.0 0.00 0.00 0.00 79 1007.1
20171123093615 84 72 12.0 16.0 0.00 0.00 0.00 79 1007.1
20171123093144 84 69 13.0 15.0 0.00 0.00 0.00 80 1007.1
20171123092644 84 59 14.0 17.0 0.00 0.00 0.00 80 1006.7
20171123091614 84 72 14.0 16.0 0.00 0.00 0.00 79 1006.7
20171123091114 84 71 13.0 16.0 0.00 0.00 0.00 79 1006.5
20171123090644 84 71 11.0 17.0 0.00 0.00 0.00 80 1006.5
20171123090114 84 57 14.0 17.0 0.00 0.00 0.00 79 1006.5
20171123085615 84 63 14.0 17.0 0.00 0.00 0.00 78 1006.2
20171123085115 84 54 14.0 16.0 0.00 0.00 0.00 78 1006.2
20171123084614 84 65 15.0 17.0 0.00 0.00 0.00 79 1006.2
20171123084114 84 59 13.0 17.0 0.00 0.00 0.00 78 1006.1
20171123083615 84 53 15.0 17.0 0.00 0.00 0.00 78 1006.1
20171123083144 84 55 15.0 17.0 0.00 0.00 0.00 78 1006.1
20171123082644 84 65 12.0 17.0 0.00 0.00 0.00 77 1006.0
20171123082144 84 65 15.0 18.0 0.00 0.00 0.00 78 1006.0
20171123081614 84 57 16.0 18.0 0.00 0.00 0.00 78 1006.0
20171123081114 84 60 15.0 18.0 0.00 0.00 0.00 79 1005.7
20171123080614 84 69 12.0 18.0 0.00 0.00 0.00 78 1005.7
20171123080144 84 61 12.0 18.0 0.00 0.00 0.00 78 1005.7
20171123075614 84 65 14.0 18.0 0.00 0.00 0.00 77 1005.5
20171123075114 84 62 15.0 18.0 0.00 0.00 0.00 76 1005.5
20171123074614 84 63 14.0 18.0 0.00 0.00 0.00 76 1005.5
20171123074114 84 63 13.0 18.0 0.00 0.00 0.00 77 1005.4
20171123073614 84 65 16.0 19.0 0.00 0.00 0.00 76 1005.4
20171123073114 84 61 15.0 19.0 0.00 0.00 0.00 76 1005.4
20171123072614 84 68 17.0 19.0 0.00 0.00 0.00 76 1005.2
20171123072114 84 65 16.0 19.0 0.00 0.00 0.00 77 1005.2
20171123071614 84 80 14.0 19.0 0.00 0.00 0.00 77 1005.2
20171123071114 84 61 17.0 19.0 0.00 0.00 0.00 77 1005.2
20171123070615 84 55 16.0 19.0 0.00 0.00 0.00 77 1005.2
20171123070115 84 65 16.0 19.0 0.00 0.00 0.00 76 1005.2
20171123065614 84 64 17.0 17.0 0.00 0.00 0.00 77 1005.1
20171123065114 85 68 14.0 19.0 0.00 0.00 0.00 76 1005.1
20171123064614 85 66 15.0 19.0 0.00 0.00 0.00 75 1005.1
20171123064115 85 63 14.0 19.0 0.00 0.00 0.00 76 1004.8
20171123063614 85 64 15.0 19.0 0.00 0.00 0.00 76 1004.8
20171123063114 85 67 16.0 18.0 0.00 0.00 0.00 75 1004.8
20171123062614 85 78 16.0 19.0 0.00 0.00 0.00 76 1004.6
20171123062114 85 65 16.0 19.0 0.00 0.00 0.00 75 1004.6
20171123061614 85 71 13.0 19.0 0.00 0.00 0.00 76 1004.6
20171123061144 85 71 17.0 19.0 0.00 0.00 0.00 76 1004.4
20171123060614 85 69 17.0 19.0 0.00 0.00 0.00 77 1004.4
20171123060115 85 67 16.0 18.0 0.00 0.00 0.00 79 1004.4
20171123055614 85 60 15.0 18.0 0.00 0.00 0.00 78 1004.2
20171123055114 85 74 15.0 18.0 0.00 0.00 0.00 77 1004.2
20171123054614 85 75 16.0 18.0 0.00 0.00 0.00 77 1004.2
20171123054114 85 80 15.0 18.0 0.00 0.00 0.00 77 1004.1
20171123053614 85 74 13.0 19.0 0.00 0.00 0.00 77 1004.1
20171123053115 85 73 16.0 19.0 0.00 0.00 0.00 77 1004.1
20171123052614 85 73 14.0 18.0 0.00 0.00 0.00 78 1004.1
20171123052114 85 76 13.0 19.0 0.00 0.00 0.00 78 1004.1
20171123051644 85 53 16.0 19.0 0.00 0.00 0.00 81 1004.1
20171123051144 84 64 14.0 20.0 0.00 0.00 0.00 81 1004.2
20171123050614 84 63 18.0 20.0 0.00 0.00 0.00 80 1004.2
20171123050114 85 60 18.0 19.0 0.00 0.00 0.00 81 1004.2
20171123045614 85 47 12.0 19.0 0.00 0.00 0.00 79 1004.4
20171123045114 85 65 16.0 19.0 0.00 0.00 0.00 78 1004.4
20171123044614 85 59 15.0 20.0 0.00 0.00 0.00 78 1004.4
20171123044114 85 55 15.0 20.0 0.00 0.00 0.00 78 1004.6
20171123043614 85 68 15.0 20.0 0.00 0.00 0.00 80 1004.6
20171123043114 85 59 15.0 20.0 0.00 0.00 0.00 79 1004.6
20171123042614 85 63 15.0 20.0 0.00 0.00 0.00 78 1004.6
20171123042114 85 69 15.0 19.0 0.00 0.00 0.00 80 1004.6
20171123041614 85 71 19.0 21.0 0.00 0.00 0.00 80 1004.6
20171123041114 85 66 15.0 21.0 0.00 0.00 0.00 80 1004.7
20171123040614 85 73 16.0 21.0 0.00 0.00 0.00 80 1004.7
20171123040114 85 63 15.0 18.0 0.00 0.00 0.00 77 1004.7
20171123035644 86 51 17.0 18.0 0.00 0.00 0.00 79 1004.9
20171123035114 86 59 15.0 18.0 0.00 0.00 0.00 78 1004.9
20171123034614 86 61 14.0 17.0 0.00 0.00 0.00 78 1004.9
20171123034114 86 54 13.0 18.0 0.00 0.00 0.00 78 1005.0
20171123033614 86 55 16.0 18.0 0.00 0.00 0.00 76 1005.0
20171123033114 86 57 14.0 19.0 0.00 0.00 0.00 76 1005.0
20171123032614 86 54 17.0 19.0 0.00 0.00 0.00 77 1005.2
20171123032114 86 59 15.0 18.0 0.00 0.00 0.00 75 1005.2
20171123031614 86 49 15.0 19.0 0.00 0.00 0.00 77 1005.2
20171123031114 86 57 15.0 19.0 0.00 0.00 0.00 77 1005.3
20171123030614 86 41 15.0 18.0 0.00 0.00 0.00 77 1005.3
20171123030114 86 57 16.0 20.0 0.00 0.00 0.00 76 1005.3
20171123025614 86 55 15.0 20.0 0.00 0.00 0.00 76 1005.6
20171123025114 86 53 15.0 19.0 0.00 0.00 0.00 77 1005.6
20171123024614 86 59 16.0 19.0 0.00 0.00 0.00 78 1005.6
20171123024114 86 63 14.0 19.0 0.00 0.00 0.00 77 1005.7
20171123023614 86 62 15.0 19.0 0.00 0.00 0.00 76 1005.7
20171123023114 86 55 13.0 19.0 0.00 0.00 0.00 76 1005.7
20171123022614 86 62 13.0 18.0 0.00 0.00 0.00 76 1005.8
20171123022114 86 57 15.0 20.0 0.00 0.00 0.00 76 1005.8
20171123021614 86 59 15.0 20.0 0.00 0.00 0.00 75 1005.8
20171123021114 86 53 14.0 19.0 0.00 0.00 0.00 78 1006.1
20171123020614 86 54 15.0 19.0 0.00 0.00 0.00 78 1006.1
20171123020114 86 65 15.0 19.0 0.00 0.00 0.00 77 1006.1
20171123015614 86 67 15.0 19.0 0.00 0.00 0.00 76 1006.3
20171123015114 86 65 15.0 20.0 0.00 0.00 0.00 78 1006.3
20171123014614 86 67 17.0 21.0 0.00 0.01 0.00 77 1006.3
20171123014114 86 60 19.0 21.0 0.00 0.01 0.00 76 1006.4
20171123013614 86 56 17.0 20.0 0.00 0.01 0.00 77 1006.4
20171123013114 86 56 18.0 21.0 0.00 0.01 0.00 76 1006.4
20171123012614 86 51 17.0 21.0 0.00 0.01 0.00 76 1006.6
20171123012114 85 59 15.0 21.0 0.00 0.01 0.00 76 1006.6
20171123011614 86 62 15.0 22.0 0.00 0.01 0.00 77 1006.6
20171123011114 86 70 14.0 22.0 0.00 0.01 0.00 78 1006.7
20171123010614 86 50 19.0 21.0 0.00 0.01 0.00 78 1006.7
20171123010114 86 53 15.0 21.0 0.00 0.01 0.00 78 1006.7
20171123005614 86 63 17.0 21.0 0.00 0.01 0.00 79 1006.7
20171123005114 86 63 19.0 21.0 0.00 0.01 0.00 77 1006.7
20171123004614 86 65 16.0 21.0 0.00 0.01 0.00 78 1006.7
20171123004114 86 55 19.0 20.0 0.00 0.01 0.00 79 1006.8
20171123003614 86 50 16.0 19.0 0.00 0.01 0.00 77 1006.8
20171123003114 86 62 15.0 20.0 0.00 0.01 0.00 78 1006.8
20171123002614 86 61 18.0 20.0 0.00 0.01 0.00 76 1006.9
20171123002114 86 63 17.0 20.0 0.00 0.01 0.00 78 1006.9
20171123001614 86 68 14.0 20.0 0.00 0.01 0.00 78 1006.9
20171123001114 85 67 13.0 18.0 0.00 0.01 0.00 77 1007.0
20171123000614 85 58 18.0 19.0 0.00 0.01 0.00 79 1007.0
20171123000114 85 57 17.0 19.0 0.00 0.01 0.00 79 1007.0
20171122235614 85 59 15.0 19.0 0.00 0.01 0.00 77 1007.1
20171122235114 86 50 17.0 19.0 0.00 0.01 0.00 77 1007.1
20171122234614 86 67 14.0 20.0 0.00 0.01 0.00 78 1007.1
20171122234114 86 63 16.0 20.0 0.00 0.01 0.00 77 1007.1
20171122233614 86 61 16.0 19.0 0.00 0.01 0.00 77 1007.1
20171122233114 85 67 17.0 18.0 0.00 0.01 0.00 76 1007.1
20171122232614 85 65 16.0 20.0 0.00 0.01 0.00 77 1007.1
20171122232114 85 65 16.0 20.0 0.00 0.01 0.00 75 1007.1
20171122231614 85 58 15.0 20.0 0.00 0.01 0.00 75 1007.1
20171122231114 85 64 18.0 19.0 0.00 0.01 0.00 76 1007.1
20171122230614 85 62 16.0 20.0 0.00 0.01 0.00 75 1007.1
20171122230114 85 67 16.0 20.0 0.00 0.01 0.00 74 1007.1
20171122225614 85 65 18.0 20.0 0.00 0.01 0.00 74 1007.0
20171122225114 85 62 17.0 20.0 0.00 0.01 0.00 74 1007.0
20171122224614 85 55 16.0 20.0 0.00 0.01 0.00 73 1007.0
20171122224114 85 69 13.0 21.0 0.00 0.01 0.00 74 1007.0
20171122223614 85 67 18.0 21.0 0.00 0.01 0.00 76 1007.0
20171122223114 85 72 16.0 20.0 0.00 0.01 0.00 76 1007.0
20171122222614 85 69 16.0 20.0 0.00 0.01 0.00 75 1006.7
20171122222114 85 57 16.0 20.0 0.00 0.01 0.00 75 1006.7
20171122221614 85 59 18.0 21.0 0.00 0.01 0.00 77 1006.7
20171122221114 85 54 19.0 21.0 0.00 0.01 0.00 76 1006.6
20171122220614 85 53 20.0 22.0 0.00 0.01 0.00 74 1006.6
20171122220114 85 66 17.0 22.0 0.00 0.01 0.00 73 1006.6
20171122215614 84 59 16.0 21.0 0.00 0.01 0.00 76 1006.6
20171122215114 84 60 18.0 21.0 0.00 0.01 0.00 76 1006.6
20171122214614 84 63 21.0 22.0 0.00 0.01 0.00 77 1006.6
20171122214114 84 51 18.0 22.0 0.00 0.01 0.00 78 1006.2
20171122213614 84 51 21.0 22.0 0.00 0.01 0.00 76 1006.2
20171122213114 84 56 19.0 22.0 0.00 0.01 0.00 75 1006.2
20171122212614 84 64 17.0 21.0 0.00 0.01 0.00 76 1006.1
20171122212114 84 57 16.0 21.0 0.00 0.01 0.00 78 1006.1
20171122211614 84 57 19.0 21.0 0.00 0.01 0.00 79 1006.1
20171122211114 84 67 17.0 22.0 0.00 0.01 0.00 78 1005.9
20171122210614 84 68 19.0 22.0 0.00 0.01 0.00 76 1005.9
20171122210114 84 57 19.0 22.0 0.00 0.01 0.00 78 1005.9
20171122205614 84 55 15.0 22.0 0.00 0.01 0.00 79 1005.7
20171122205114 84 61 16.0 22.0 0.00 0.01 0.00 77 1005.7
20171122204614 84 63 17.0 22.0 0.00 0.01 0.00 77 1005.7
20171122204114 84 46 18.0 22.0 0.00 0.01 0.00 77 1005.6
20171122203614 83 57 20.0 22.0 0.00 0.01 0.00 79 1005.6
20171122203114 83 65 20.0 20.0 0.00 0.01 0.00 79 1005.6
20171122202614 83 63 19.0 20.0 0.00 0.01 0.00 78 1005.3
20171122202114 83 63 17.0 22.0 0.00 0.01 0.00 76 1005.3
20171122201614 83 57 17.0 22.0 0.00 0.01 0.00 78 1005.3
20171122201114 83 55 16.0 21.0 0.00 0.01 0.00 78 1005.2
20171122200614 83 67 17.0 21.0 0.00 0.01 0.00 80 1005.2
20171122200114 83 61 18.0 22.0 0.00 0.01 0.00 79 1005.2
20171122195614 83 66 16.0 22.0 0.00 0.01 0.00 77 1005.1
20171122195114 83 63 16.0 21.0 0.00 0.01 0.00 78 1005.1
20171122194614 83 75 19.0 22.0 0.00 0.01 0.00 79 1005.1
20171122194114 83 67 17.0 22.0 0.00 0.01 0.00 78 1005.0
20171122193614 83 55 18.0 22.0 0.00 0.01 0.00 77 1005.0
20171122193114 83 58 21.0 22.0 0.00 0.01 0.00 79 1005.0
20171122192614 83 65 15.0 22.0 0.00 0.01 0.00 79 1004.7
20171122192114 83 48 18.0 21.0 0.00 0.01 0.00 78 1004.7
20171122191614 83 60 17.0 21.0 0.00 0.01 0.00 78 1004.7
20171122191114 83 63 13.0 20.0 0.00 0.01 0.00 79 1004.6
20171122190614 83 61 20.0 21.0 0.00 0.01 0.00 78 1004.6
20171122190114 83 61 17.0 23.0 0.00 0.01 0.00 79 1004.6
20171122185114 83 67 17.0 23.0 0.00 0.01 0.00 79 1004.6
20171122184614 83 59 21.0 23.0 0.00 0.01 0.00 80 1004.6
20171122184114 83 53 22.0 22.0 0.00 0.01 0.00 80 1004.5
20171122183614 83 61 19.0 21.0 0.00 0.01 0.00 81 1004.5
20171122183114 83 57 16.0 22.0 0.00 0.01 0.00 81 1004.5
20171122182614 83 67 16.0 23.0 0.00 0.01 0.00 80 1004.3
20171122182114 83 44 18.0 23.0 0.00 0.01 0.00 80 1004.3
20171122181614 83 61 18.0 23.0 0.00 0.01 0.00 79 1004.3
20171122181114 83 58 20.0 23.0 0.00 0.01 0.00 80 1004.1
20171122180614 83 55 17.0 22.0 0.00 0.01 0.00 81 1004.1
20171122180114 83 47 19.0 23.0 0.00 0.01 0.00 81 1004.1
20171122175114 83 65 20.0 24.0 0.00 0.01 0.00 82 1004.1
20171122174614 83 59 21.0 23.0 0.00 0.01 0.00 81 1004.1
20171122173614 83 48 20.0 24.0 0.00 0.01 0.00 81 1004.1
20171122173114 83 49 18.0 24.0 0.00 0.01 0.00 81 1004.1
20171122172614 83 49 23.0 24.0 0.00 0.01 0.00 83 1004.1
20171122172114 83 52 20.0 22.0 0.00 0.01 0.00 83 1004.1
20171122171614 83 49 20.0 22.0 0.00 0.01 0.00 82 1004.1
20171122171114 83 62 19.0 23.0 0.00 0.01 0.00 83 1004.1
20171122170614 83 51 16.0 24.0 0.00 0.01 0.00 82 1004.1
20171122170114 83 76 20.0 24.0 0.00 0.01 0.00 83 1004.1
20171122165614 83 49 20.0 24.0 0.00 0.01 0.00 82 1004.1